Regional Weather Roundup
Issued by NWS

Home | Current Version | Previous Version | Text Only | Print | Product List | Glossary On
Versions: 1 2 3 4 5 6 7 8 9 10 11 12 13 14 15 16 17 18 19 20 21 22 23 24 25 26 27 28 29 30 31 32 33 34 35 36 37 38 39 40 41 42 43 44 45 46 47 48 49 50
000
ASUS42 KFFC 301803
RWRGA
WEATHER ROUNDUP FOR GEORGIA
NATIONAL WEATHER SERVICE PEACHTREE CITY GA
200 PM EDT SAT AUG 30 2014

NOTE: "FAIR" INDICATES FEW OR NO CLOUDS BELOW 12,000 FEET WITH NO
SIGNIFICANT WEATHER AND/OR OBSTRUCTIONS TO VISIBILITY.

* = USE WITH CAUTION. THE STATIONS MARKED WITH AN ASTERISK MAY NOT
REPORT WEATHER SUCH AS PRECIPITATION, FOG, OR THUNDER AND ARE NOT
QUALITY CONTROLLED BY NWS.

THE REMARK "TC" DENOTES TEMPERATURE READING IN DEGREES CELSIUS.

GAZ001>058-301900-
NORTH GEORGIA

CITY           SKY/WX    TMP DP  RH WIND       PRES   REMARKS
ATLANTA        PTSUNNY   88  72  58 SE9       30.14F HX  94
6HR MIN TEMP:  74; 6HR MAX TEMP:  88;

ATHENS         CLOUDY    89  69  51 CALM      30.15F HX  93
6HR MIN TEMP:  70; 6HR MAX TEMP:  92;

CHAMBLEE       PTSUNNY   88  69  53 SE8       30.15F HX  92
6HR MIN TEMP:  72; 6HR MAX TEMP:  90;

PEACHTREE CITY MOSUNNY   90  69  50 SE10      30.13F HX  94
6HR MIN TEMP:  68; 6HR MAX TEMP:  91;

ROME           MOSUNNY   89  71  55 S9G16     30.10F HX  95
6HR MIN TEMP:  69; 6HR MAX TEMP:  90;

WEST ATLANTA   PTSUNNY   89  71  55 CALM      30.13F HX  95
6HR MIN TEMP:  69; 6HR MAX TEMP:  89;

GAINESVILLE    CLOUDY    87  69  54 SE9       30.19F HX  91
6HR MIN TEMP:  72; 6HR MAX TEMP:  88;

CARTERSVILLE   MOSUNNY   88  69  53 SE8       30.13F HX  92
6HR MIN TEMP:  71; 6HR MAX TEMP:  89;



CITY           SKY/WX    TMP DP  RH WIND       PRES   REMARKS
DALTON*        PTSUNNY   86  70  58 SE8       30.13F HX  90
LAWRENCEVILLE* PTSUNNY   86  68  54 E6        30.20R
MARIETTA       PTSUNNY   87  73  61 VRB6      30.14F HX  94
KENNESAW*      PTSUNNY   86  70  58 SW6       30.16F HX  90
$$

GAZ059>098-102>109-301900-
CENTRAL GEORGIA

CITY           SKY/WX    TMP DP  RH WIND       PRES   REMARKS
AUGUSTA-BUSH   MOSUNNY   94  66  39 SE9       30.12F HX  97
6HR MIN TEMP:  71; 6HR MAX TEMP:  94;

AUGUSTA-DANIEL PTSUNNY   92  66  42 S7        30.15F HX  94
6HR MIN TEMP:  75; 6HR MAX TEMP:  94;

COLUMBUS       MOSUNNY   93  69  45 S8        30.10F HX  98
6HR MIN TEMP:  75; 6HR MAX TEMP:  93;

MACON          MOSUNNY   92  70  48 S8G16     30.12F HX  97
6HR MIN TEMP:  74; 6HR MAX TEMP:  92;

ROBINS AFB     SUNNY     93  73  50 E9        30.11F HX 102


CITY           SKY/WX    TMP DP  RH WIND       PRES   REMARKS
LAGRANGE*      MOSUNNY   94  73  49 SE7       30.11F HX 103
SYLVANIA*      PTSUNNY   87  73  61 SE5       30.15S HX  94
MILLEDGEVILLE* PTSUNNY   93  75  55 E5        30.13F HX 104
$$

GAZ099>101-110>166-301900-
SOUTH GEORGIA

CITY           SKY/WX    TMP DP  RH WIND       PRES   REMARKS
SAVANNAH       NOT AVBL
VALDOSTA       MOSUNNY   92  72  51 E6        30.11F HX  99
6HR MIN TEMP:  74; 6HR MAX TEMP:  92;

ALMA           MOSUNNY   90  72  55 E9        30.13F HX  97
6HR MIN TEMP:  75; 6HR MAX TEMP:  92;

ST SIMONS      SUNNY     87  75  67 E12       30.14F HX  96
6HR MIN TEMP:  78; 6HR MAX TEMP:  87;

FT STEWART     PTSUNNY   91  72  52 E13       30.12F HX  98
ALBANY         PTSUNNY   89  71  55 CALM      30.12F HX  95
HUNTER AFB     MOSUNNY   90  74  59 E10       30.12F HX 100
BRUNSWICK      PTSUNNY   90  73  58 E10       30.14S HX  98


CITY           SKY/WX    TMP DP  RH WIND       PRES   REMARKS
BAINBRIDGE*    MOSUNNY   95  75  52 CALM      30.10F HX 107
MOULTRIE*      SUNNY     91  70  49 SE3       30.12F HX  97
VIDALIA*         N/A     93  70  46 SE6       30.13F HX  99
WAYCROSS*      CLOUDY    94  75  53 E9        30.12F HX 105
DOUGLAS*       CLOUDY    93  68  43 SE5       30.13F HX  97
$$


USA.gov is the U.S. government's official web portal to all federal, state and local government web resources and services.